Вернуться в каталог

CZ-6A DEB

АктивенSSO
NORAD 56664·DEBRIS·🇨🇳 China

Запущен Nov 11, 2022 с Taiyuan Satellite Launch Center

Loading…

Ближайшие Пролёты (ближайшие 24 часа)

TLE

СвежийSource: Space-Track

Эпоха: Sep 13, 2026, 06:58 UTC

1 56664U 22151AGQ 26256.29059035  .00000287  00000-0  17408-3 0  9992
2 56664  98.8259 260.0336 0034433  70.4189 290.0696 14.13648029179924

Отслеживайте CZ-6A DEB в реальном времени с AllMySat

Download on the App Store